#timestamp,LO_Frequency,Hit,StdDev 
1654898415.5,286046999.7,P
1654898435.4,286046999.7,N
1654898455.2,286047002.8,Y
1654898475.1,286047000.8,P
1654898476.0,286047000.8,N
1654898495.8,286047002.5,P
1654898515.6,286047002.8,N
1654898535.5,286047002.1,N
1654898555.3,286046999.7,N
1654898575.1,286047001.6,N
1654898595.9,286047002.0,N
1654898615.7,286047004.8,Y
1654898635.6,286047008.1,P
1654898655.4,286047013.5,P
1654898675.2,286047009.4,N
1654898695.1,286047009.0,N
1654898696.0,286047009.0,N
1654898715.8,286047004.7,N
1654898735.6,286047006.0,N
1654898755.5,286047005.7,N
1654898775.3,286047003.7,N
1654898795.2,286047002.2,N
1654898815.9,286047001.3,N
1654898835.7,286047001.9,N
1654898855.6,286047002.0,N
1654898875.4,286047002.2,N
1654898895.2,286047002.6,N
1654898915.1,286046999.8,N
1654898916.0,286046999.8,N
1654898935.8,286047000.5,N
1654898955.7,286046998.1,N
1654898975.5,286047001.1,N
1654898995.3,286046998.1,N
1654899015.2,286047001.1,N
1654899035.0,286047000.9,N
1654899035.9,286047000.9,N
1654899055.8,286047000.9,N
1654899075.6,286046998.1,N
1654899095.4,286046999.1,N
1654899115.3,286046999.3,N
1654899135.1,286046999.6,N
1654899155.8,286046996.5,N
1654899175.7,286046999.3,N
1654899195.5,286046999.0,N
1654899215.4,286046999.4,N
1654899235.2,286046998.3,N
1654899255.0,286046998.4,N
1654899255.9,286046998.4,N
1654899275.8,286046998.8,N
1654899295.6,286047000.8,N
1654899315.4,286047001.2,N
1654899335.3,286047001.0,N
1654899355.1,286046999.9,N
1654899375.9,286046999.9,N
1654899395.7,286047000.0,N
1654899415.5,286047002.7,N
1654899435.4,286047002.3,N
1654899455.2,286047001.9,N
1654899475.1,286047002.3,N
1654899476.0,286047002.3,N
1654899495.8,286047000.0,N
1654899515.6,286046999.9,N
1654899535.5,286047000.1,N
1654899555.3,286046998.6,N
1654899575.2,286047001.2,N
1654899595.9,286046999.9,N
1654899615.7,286047000.9,N
1654899635.6,286047000.3,N
1654899655.4,286047000.7,N
1654899675.3,286046998.7,N
1654899695.1,286046998.3,N
1654899696.0,286046998.3,N
1654899715.8,286046999.2,N
1654899735.7,286046998.9,N
1654899755.5,286047000.8,N
1654899775.3,286047000.5,N
1654899795.2,286047001.1,N
1654899815.0,286047000.4,N
1654899815.9,286047000.4,N
1654899835.8,286046999.9,N
1654899855.6,286047000.2,N
1654899875.4,286047002.6,N
1654899895.3,286047000.5,N
1654899915.1,286046998.2,N
1654899935.8,286046998.7,N
1654899955.7,286047001.2,N
1654899975.5,286046998.2,N
1654899995.4,286046998.3,N
1654900015.2,286047001.2,N
1654900035.0,286047001.1,N
1654900035.9,286047001.1,N
1654900055.8,286046999.9,N
1654900075.6,286046998.5,N
1654900095.4,286046999.9,N
1654900115.3,286047000.6,N
1654900135.1,286047002.7,N
1654900155.9,286047000.6,N
1654900175.7,286047000.9,N
1654900195.5,286047000.9,N
1654900215.4,286047000.7,N
1654900235.2,286047000.1,N
1654900255.1,286047002.5,N
1654900256.0,286047002.5,N
1654900275.8,286047000.1,N
1654900295.6,286047002.3,N
1654900315.5,286047002.7,N
1654900335.3,286047002.7,N
1654900355.2,286047002.5,N
1654900375.9,286047001.5,N
1654900395.7,286047002.2,N
1654900415.6,286047002.2,N
1654900435.4,286047000.1,N
1654900455.2,286047002.8,N
1654900475.1,286047000.6,N
1654900476.0,286047000.6,N
1654900495.8,286047002.7,N
1654900515.7,286047002.4,N
1654900535.5,286047001.9,N
1654900555.3,286047002.8,N
1654900575.2,286047002.2,N
1654900595.0,286047002.6,N
1654900595.9,286047002.6,N
1654900615.8,286047002.3,N
1654900635.6,286047002.5,N
1654900655.4,286047002.8,N
1654900675.3,286047002.5,N
1654900695.1,286047001.6,N
1654900715.9,286047002.1,N
1654900735.7,286047002.0,N
1654900755.5,286047001.5,N
1654900775.4,286047003.9,Y
1654900795.2,286047002.0,P
1654900815.0,286047002.6,P
1654900815.9,286047002.6,P
1654900835.8,286047002.2,Y
1654900855.6,286046999.4,P
1654900875.5,286046999.3,N
1654900895.3,286046999.6,N
1654900915.1,286046996.5,N
1654900935.9,286046998.9,N
1654900955.7,286046999.1,N
1654900975.6,286046996.8,N
1654900995.4,286046997.4,N
1654901015.2,286046996.9,N
1654901035.1,286046999.6,N
1654901036.0,286046999.6,N
1654901055.8,286046998.9,N
1654901075.7,286046999.5,N
1654901095.5,286046996.7,N
1654901115.3,286046999.2,N
1654901135.2,286046998.4,N
1654901155.0,286046996.7,N
1654901155.9,286046996.7,N
1654901175.7,286046999.2,N
1654901195.6,286046999.6,N
1654901215.4,286046996.5,N
1654901235.3,286046996.5,N
1654901255.1,286046999.5,N
1654901256.0,286046999.5,N
1654901275.8,286046998.8,N
1654901295.7,286046998.4,N
1654901315.5,286046999.1,N
1654901335.3,286046996.6,N
1654901355.2,286046999.3,N
1654901375.0,286046999.1,N
1654901375.9,286046999.1,N
1654901395.8,286046999.6,N
1654901415.6,286046996.7,N
1654901435.4,286046999.2,N
1654901455.3,286046999.1,N
1654901475.1,286047000.9,N
1654901495.9,286046998.1,N
1654901515.7,286046998.2,N
1654901535.5,286046998.3,N
1654901555.4,286046999.3,N
1654901575.2,286046998.1,N
1654901595.0,286047001.2,N
1654901595.9,286047001.2,N
1654901615.8,286047000.7,N
1654901635.6,286047000.6,N
1654901655.5,286047001.1,N
1654901675.3,286046998.6,N
1654901695.1,286046998.8,N
1654901715.9,286046997.4,N
1654901735.7,286046995.8,Y
1654901755.5,286046995.7,P
1654901775.4,286046996.0,N
1654901795.2,286046993.4,P
1654901815.1,286046996.1,N
1654901816.0,286046996.1,N
1654901835.8,286046995.6,N
1654901855.7,286046994.1,Y
1654901875.5,286046996.9,P
1654901895.3,286046996.5,P
1654901915.2,286046996.9,P
1654901935.9,286046999.6,N
1654901955.7,286046998.3,N
1654901975.6,286046998.9,N
1654901995.4,286046998.2,N
